Time,TemperatureF,DewpointF,PressureIn,WindDirection,WindDirectionDegrees,WindSpeedMPH,WindSpeedGustMPH,Humidity,HourlyPrecipIn,Conditions,Clouds,dailyrainin,SoftwareType,DateUTC
2013-03-02 00:03:00,32.4,28.7,30.41,NNW,339,2.0,3.0,86,0.00,,---,0.00,VWS V14.01,2013-03-02 06:03:00,
2013-03-02 00:08:00,32.4,28.4,30.41,NW,326,1.0,3.0,85,0.00,,---,0.00,VWS V14.01,2013-03-02 06:08:00,
2013-03-02 00:13:00,32.4,28.4,30.41,NNW,328,1.0,3.0,85,0.00,,---,0.00,VWS V14.01,2013-03-02 06:13:00,
2013-03-02 00:18:00,32.3,28.3,30.42,NNW,338,3.0,3.0,85,0.00,,---,0.00,VWS V14.01,2013-03-02 06:18:00,
2013-03-02 00:23:00,32.3,28.3,30.41,NW,323,4.0,6.0,85,0.00,,---,0.00,VWS V14.01,2013-03-02 06:23:00,
2013-03-02 00:28:00,32.6,28.3,30.41,NW,326,4.0,6.0,84,0.00,,---,0.00,VWS V14.01,2013-03-02 06:28:00,
2013-03-02 00:34:00,32.6,28.3,30.41,NNW,328,3.0,5.0,84,0.00,,---,0.00,VWS V14.01,2013-03-02 06:34:00,
2013-03-02 00:39:00,32.5,28.2,30.41,NW,325,2.0,5.0,84,0.00,,---,0.00,VWS V14.01,2013-03-02 06:39:00,
2013-03-02 00:44:00,32.4,27.8,30.41,NW,323,1.0,5.0,83,0.00,,---,0.00,VWS V14.01,2013-03-02 06:44:00,
2013-03-02 00:49:00,32.4,28.1,30.42,NNW,342,2.0,5.0,84,0.00,,---,0.00,VWS V14.01,2013-03-02 06:49:00,
2013-03-02 00:54:00,32.5,27.9,30.42,NNW,340,1.0,5.0,83,0.00,,---,0.00,VWS V14.01,2013-03-02 06:54:00,
2013-03-02 00:59:00,32.6,28.0,30.42,NNW,338,0.0,5.0,83,0.00,,---,0.00,VWS V14.01,2013-03-02 06:59:00,
2013-03-02 01:04:00,32.7,28.1,30.42,NNW,339,0.0,2.0,83,0.00,,---,0.00,VWS V14.01,2013-03-02 07:04:00,
2013-03-02 01:09:00,32.6,28.0,30.42,West,278,1.0,2.0,83,0.00,,---,0.00,VWS V14.01,2013-03-02 07:09:00,
2013-03-02 01:15:00,32.8,28.2,30.42,West,278,1.0,2.0,83,0.00,,---,0.00,VWS V14.01,2013-03-02 07:15:00,
2013-03-02 01:20:00,32.6,28.0,30.42,West,266,1.0,3.0,83,0.00,,---,0.00,VWS V14.01,2013-03-02 07:20:00,
2013-03-02 01:25:00,32.2,27.9,30.42,WNW,285,2.0,3.0,84,0.00,,---,0.00,VWS V14.01,2013-03-02 07:25:00,
2013-03-02 01:30:00,32.3,27.7,30.43,WNW,295,3.0,6.0,83,0.00,,---,0.00,VWS V14.01,2013-03-02 07:30:00,
2013-03-02 01:35:00,31.8,27.5,30.43,WNW,293,3.0,4.0,84,0.00,,---,0.00,VWS V14.01,2013-03-02 07:35:00,
2013-03-02 01:40:00,31.5,27.5,30.43,WNW,297,3.0,4.0,85,0.00,,---,0.00,VWS V14.01,2013-03-02 07:40:00,
2013-03-02 01:45:00,31.0,27.0,30.44,NW,311,2.0,4.0,85,0.00,,---,0.00,VWS V14.01,2013-03-02 07:45:00,
2013-03-02 01:50:00,30.9,27.2,30.44,NW,308,2.0,4.0,86,0.00,,---,0.00,VWS V14.01,2013-03-02 07:50:00,
2013-03-02 01:56:00,30.8,27.1,30.43,WNW,302,1.0,4.0,86,0.00,,---,0.00,VWS V14.01,2013-03-02 07:56:00,
2013-03-02 02:01:00,30.6,26.9,30.43,WNW,302,1.0,4.0,86,0.00,,---,0.00,VWS V14.01,2013-03-02 08:01:00,
2013-03-02 02:06:00,30.4,27.0,30.43,WNW,298,1.0,2.0,87,0.00,,---,0.00,VWS V14.01,2013-03-02 08:06:00,
2013-03-02 02:11:00,30.4,27.0,30.43,NW,304,1.0,2.0,87,0.00,,---,0.00,VWS V14.01,2013-03-02 08:11:00,
2013-03-02 02:16:00,30.4,27.0,30.43,NW,316,1.0,2.0,87,0.00,,---,0.00,VWS V14.01,2013-03-02 08:16:00,
2013-03-02 02:21:00,30.4,27.0,30.43,NNW,332,2.0,3.0,87,0.00,,---,0.00,VWS V14.01,2013-03-02 08:21:00,
2013-03-02 02:26:00,30.6,27.2,30.42,NNW,330,3.0,3.0,87,0.00,,---,0.00,VWS V14.01,2013-03-02 08:26:00,
2013-03-02 02:31:00,30.8,27.4,30.43,NNW,334,2.0,2.0,87,0.00,,---,0.00,VWS V14.01,2013-03-02 08:31:00,
2013-03-02 02:36:00,31.2,27.8,30.43,NNE,16,2.0,2.0,87,0.00,,---,0.00,VWS V14.01,2013-03-02 08:36:00,
2013-03-02 02:42:00,31.3,27.6,30.42,NNE,27,1.0,2.0,86,0.00,,---,0.00,VWS V14.01,2013-03-02 08:42:00,
2013-03-02 02:47:00,31.3,27.6,30.43,North,9,1.0,2.0,86,0.00,,---,0.00,VWS V14.01,2013-03-02 08:47:00,
2013-03-02 02:52:00,31.3,27.6,30.43,NNW,331,1.0,2.0,86,0.00,,---,0.00,VWS V14.01,2013-03-02 08:52:00,
2013-03-02 02:57:00,31.0,27.3,30.43,West,280,0.0,2.0,86,0.00,,---,0.00,VWS V14.01,2013-03-02 08:57:00,
2013-03-02 03:02:00,30.6,27.2,30.42,West,281,0.0,1.0,87,0.00,,---,0.00,VWS V14.01,2013-03-02 09:02:00,
2013-03-02 03:07:00,30.0,26.6,30.42,NW,312,1.0,2.0,87,0.00,,---,0.00,VWS V14.01,2013-03-02 09:07:00,
2013-03-02 03:12:00,29.7,26.6,30.42,NW,323,2.0,2.0,88,0.00,,---,0.00,VWS V14.01,2013-03-02 09:12:00,
2013-03-02 03:17:00,29.8,27.0,30.42,NNW,330,1.0,2.0,89,0.00,,---,0.00,VWS V14.01,2013-03-02 09:17:00,
2013-03-02 03:22:00,30.0,27.2,30.42,NNW,330,0.0,2.0,89,0.00,,---,0.00,VWS V14.01,2013-03-02 09:22:00,
2013-03-02 03:28:00,30.3,27.5,30.41,NNW,347,1.0,2.0,89,0.00,,---,0.00,VWS V14.01,2013-03-02 09:28:00,
2013-03-02 03:33:00,30.4,27.3,30.41,North,349,1.0,1.0,88,0.00,,---,0.00,VWS V14.01,2013-03-02 09:33:00,
2013-03-02 03:38:00,30.3,27.2,30.41,North,349,1.0,1.0,88,0.00,,---,0.00,VWS V14.01,2013-03-02 09:38:00,
2013-03-02 03:43:00,30.4,27.3,30.41,NNW,347,1.0,1.0,88,0.00,,---,0.00,VWS V14.01,2013-03-02 09:43:00,
2013-03-02 03:48:00,30.2,27.1,30.41,NNW,330,1.0,2.0,88,0.00,,---,0.00,VWS V14.01,2013-03-02 09:48:00,
2013-03-02 03:53:00,30.0,26.9,30.41,North,352,2.0,2.0,88,0.00,,---,0.00,VWS V14.01,2013-03-02 09:53:00,
2013-03-02 03:59:00,29.8,27.0,30.41,North,8,1.0,2.0,89,0.00,,---,0.00,VWS V14.01,2013-03-02 09:59:00,
2013-03-02 04:04:00,29.7,26.9,30.41,North,350,1.0,2.0,89,0.00,,---,0.00,VWS V14.01,2013-03-02 10:04:00,
2013-03-02 04:10:00,29.1,26.0,30.41,North,350,1.0,2.0,88,0.00,,---,0.00,VWS V14.01,2013-03-02 10:10:00,
2013-03-02 04:15:00,28.7,25.9,30.41,North,350,1.0,2.0,89,0.00,,---,0.00,VWS V14.01,2013-03-02 10:15:00,
2013-03-02 04:20:00,28.6,26.0,30.41,North,6,2.0,2.0,90,0.00,,---,0.00,VWS V14.01,2013-03-02 10:20:00,
2013-03-02 04:25:00,28.7,26.1,30.41,NNW,344,1.0,3.0,90,0.00,,---,0.00,VWS V14.01,2013-03-02 10:25:00,
2013-03-02 04:30:00,28.2,25.4,30.42,NNW,344,0.0,3.0,89,0.00,,---,0.00,VWS V14.01,2013-03-02 10:30:00,
2013-03-02 04:35:00,27.9,25.4,30.42,NNW,344,0.0,0.0,90,0.00,,---,0.00,VWS V14.01,2013-03-02 10:35:00,
2013-03-02 04:40:00,27.6,25.3,30.42,NNW,344,0.0,1.0,91,0.00,,---,0.00,VWS V14.01,2013-03-02 10:40:00,
2013-03-02 04:46:00,27.3,25.0,30.42,NNW,344,1.0,1.0,91,0.00,,---,0.00,VWS V14.01,2013-03-02 10:46:00,
2013-03-02 04:51:00,27.3,25.0,30.42,North,4,1.0,2.0,91,0.00,,---,0.00,VWS V14.01,2013-03-02 10:51:00,
2013-03-02 04:56:00,27.3,25.3,30.42,North,11,1.0,2.0,92,0.00,,---,0.00,VWS V14.01,2013-03-02 10:56:00,
2013-03-02 05:01:00,27.3,25.3,30.42,North,11,0.0,0.0,92,0.00,,---,0.00,VWS V14.01,2013-03-02 11:01:00,
2013-03-02 05:06:00,27.2,25.2,30.42,NNE,22,0.0,1.0,92,0.00,,---,0.00,VWS V14.01,2013-03-02 11:06:00,
2013-03-02 05:11:00,27.3,25.3,30.42,NNE,21,1.0,2.0,92,0.00,,---,0.00,VWS V14.01,2013-03-02 11:11:00,
2013-03-02 05:16:00,27.5,25.5,30.42,NNE,23,1.0,2.0,92,0.00,,---,0.00,VWS V14.01,2013-03-02 11:16:00,
2013-03-02 05:21:00,27.5,25.2,30.43,North,11,2.0,3.0,91,0.00,,---,0.00,VWS V14.01,2013-03-02 11:21:00,
2013-03-02 05:27:00,27.3,25.0,30.43,NNW,345,1.0,3.0,91,0.00,,---,0.00,VWS V14.01,2013-03-02 11:27:00,
2013-03-02 05:32:00,27.0,24.7,30.43,North,350,2.0,3.0,91,0.00,,---,0.00,VWS V14.01,2013-03-02 11:32:00,
2013-03-02 05:37:00,27.0,25.0,30.43,North,1,1.0,3.0,92,0.00,,---,0.00,VWS V14.01,2013-03-02 11:37:00,
2013-03-02 05:42:00,26.9,24.6,30.42,North,1,0.0,3.0,91,0.00,,---,0.00,VWS V14.01,2013-03-02 11:42:00,
2013-03-02 05:47:00,26.6,24.3,30.42,North,1,1.0,3.0,91,0.00,,---,0.00,VWS V14.01,2013-03-02 11:47:00,
2013-03-02 05:52:00,26.5,24.5,30.42,North,1,1.0,3.0,92,0.00,,---,0.00,VWS V14.01,2013-03-02 11:52:00,
2013-03-02 05:57:00,26.5,24.5,30.42,SSE,149,0.0,3.0,92,0.00,,---,0.00,VWS V14.01,2013-03-02 11:57:00,
2013-03-02 06:02:00,26.3,24.3,30.43,SSE,150,0.0,0.0,92,0.00,,---,0.00,VWS V14.01,2013-03-02 12:02:00,
2013-03-02 06:08:00,26.5,24.8,30.43,SSE,150,0.0,1.0,93,0.00,,---,0.00,VWS V14.01,2013-03-02 12:08:00,
2013-03-02 06:13:00,26.5,24.5,30.43,WSW,245,2.0,2.0,92,0.00,,---,0.00,VWS V14.01,2013-03-02 12:13:00,
2013-03-02 06:18:00,25.8,23.5,30.43,SW,219,2.0,3.0,91,0.00,,---,0.00,VWS V14.01,2013-03-02 12:18:00,
2013-03-02 06:23:00,25.6,23.6,30.43,SW,236,2.0,3.0,92,0.00,,---,0.00,VWS V14.01,2013-03-02 12:23:00,
2013-03-02 06:28:00,25.9,24.2,30.43,WSW,249,1.0,3.0,93,0.00,,---,0.00,VWS V14.01,2013-03-02 12:28:00,
2013-03-02 06:33:00,26.2,24.5,30.43,SW,235,1.0,1.0,93,0.00,,---,0.00,VWS V14.01,2013-03-02 12:33:00,
2013-03-02 06:38:00,26.2,24.5,30.43,SW,224,1.0,2.0,93,0.00,,---,0.00,VWS V14.01,2013-03-02 12:38:00,
2013-03-02 06:44:00,26.1,24.4,30.43,SW,225,1.0,2.0,93,0.00,,---,0.00,VWS V14.01,2013-03-02 12:44:00,
2013-03-02 06:49:00,25.9,23.9,30.43,SW,220,2.0,3.0,92,0.00,,---,0.00,VWS V14.01,2013-03-02 12:49:00,
2013-03-02 06:54:00,25.7,23.7,30.43,SW,218,1.0,3.0,92,0.00,,---,0.00,VWS V14.01,2013-03-02 12:54:00,
2013-03-02 06:59:00,25.8,24.1,30.43,SW,224,1.0,3.0,93,0.00,,---,0.00,VWS V14.01,2013-03-02 12:59:00,
2013-03-02 07:04:00,25.7,23.7,30.43,SSW,207,4.0,4.0,92,0.00,,---,0.00,VWS V14.01,2013-03-02 13:04:00,
2013-03-02 07:09:00,25.8,24.1,30.43,SW,231,4.0,4.0,93,0.00,,---,0.00,VWS V14.01,2013-03-02 13:09:00,
2013-03-02 07:14:00,25.9,24.2,30.44,SW,221,2.0,4.0,93,0.00,,---,0.00,VWS V14.01,2013-03-02 13:14:00,
2013-03-02 07:19:00,26.3,24.6,30.44,SSW,204,1.0,4.0,93,0.00,,---,0.00,VWS V14.01,2013-03-02 13:19:00,
2013-03-02 07:24:00,26.8,25.0,30.44,SSW,210,1.0,4.0,93,0.00,,---,0.00,VWS V14.01,2013-03-02 13:24:00,
2013-03-02 07:30:00,27.2,25.2,30.44,SSW,210,1.0,4.0,92,0.00,,---,0.00,VWS V14.01,2013-03-02 13:30:00,
2013-03-02 07:35:00,27.7,25.7,30.45,SSW,210,1.0,1.0,92,0.00,,---,0.00,VWS V14.01,2013-03-02 13:35:00,
2013-03-02 07:40:00,28.1,25.8,30.45,South,186,0.0,1.0,91,0.00,,---,0.00,VWS V14.01,2013-03-02 13:40:00,
2013-03-02 07:45:00,28.8,26.5,30.45,South,186,0.0,1.0,91,0.00,,---,0.00,VWS V14.01,2013-03-02 13:45:00,
2013-03-02 07:50:00,29.6,27.0,30.45,South,186,0.0,1.0,90,0.00,,---,0.00,VWS V14.01,2013-03-02 13:50:00,
2013-03-02 07:55:00,29.6,26.8,30.45,South,191,0.0,1.0,89,0.00,,---,0.00,VWS V14.01,2013-03-02 13:55:00,
2013-03-02 08:00:00,29.7,26.9,30.45,SSW,213,0.0,1.0,89,0.00,,---,0.00,VWS V14.01,2013-03-02 14:00:00,
2013-03-02 08:05:00,30.2,27.6,30.45,SW,225,0.0,1.0,90,0.00,,---,0.00,VWS V14.01,2013-03-02 14:05:00,
2013-03-02 08:11:00,30.6,28.0,30.45,SSW,205,1.0,2.0,90,0.00,,---,0.00,VWS V14.01,2013-03-02 14:11:00,
2013-03-02 08:16:00,31.2,28.6,30.44,South,188,2.0,3.0,90,0.00,,---,0.00,VWS V14.01,2013-03-02 14:16:00,
2013-03-02 08:21:00,31.8,28.9,30.45,SSW,211,1.0,3.0,89,0.00,,---,0.00,VWS V14.01,2013-03-02 14:21:00,
2013-03-02 08:26:00,32.4,29.5,30.45,SSW,205,1.0,3.0,89,0.00,,---,0.00,VWS V14.01,2013-03-02 14:26:00,
2013-03-02 08:31:00,32.9,29.7,30.45,SW,218,0.0,0.0,88,0.00,,---,0.00,VWS V14.01,2013-03-02 14:31:00,
2013-03-02 08:36:00,33.6,30.4,30.46,West,281,2.0,2.0,88,0.00,,---,0.00,VWS V14.01,2013-03-02 14:36:00,
2013-03-02 08:41:00,33.7,30.5,30.46,WNW,284,0.0,3.0,88,0.00,,---,0.00,VWS V14.01,2013-03-02 14:41:00,
2013-03-02 08:46:00,34.0,30.8,30.47,West,276,1.0,3.0,88,0.00,,---,0.00,VWS V14.01,2013-03-02 14:46:00,
2013-03-02 08:51:00,34.3,31.1,30.47,West,277,1.0,3.0,88,0.00,,---,0.00,VWS V14.01,2013-03-02 14:51:00,
2013-03-02 08:57:00,34.6,30.9,30.47,WNW,292,2.0,4.0,86,0.00,,---,0.00,VWS V14.01,2013-03-02 14:57:00,
2013-03-02 09:02:00,35.0,31.0,30.47,WNW,291,3.0,3.0,85,0.00,,---,0.00,VWS V14.01,2013-03-02 15:02:00,
2013-03-02 09:07:00,35.3,31.0,30.47,WNW,285,2.0,4.0,84,0.00,,---,0.00,VWS V14.01,2013-03-02 15:07:00,
2013-03-02 09:12:00,35.7,31.4,30.47,WNW,288,2.0,4.0,84,0.00,,---,0.00,VWS V14.01,2013-03-02 15:12:00,
2013-03-02 09:17:00,36.2,31.5,30.46,West,277,2.0,4.0,83,0.00,,---,0.00,VWS V14.01,2013-03-02 15:17:00,
2013-03-02 09:22:00,36.6,32.2,30.46,WNW,282,3.0,4.0,84,0.00,,---,0.00,VWS V14.01,2013-03-02 15:22:00,
2013-03-02 09:28:00,37.1,32.1,30.46,NW,316,1.0,5.0,82,0.00,,---,0.00,VWS V14.01,2013-03-02 15:28:00,
2013-03-02 09:33:00,37.6,32.3,30.46,WNW,293,5.0,5.0,81,0.00,,---,0.00,VWS V14.01,2013-03-02 15:33:00,
2013-03-02 09:38:00,38.1,32.8,30.45,WNW,285,1.0,5.0,81,0.00,,---,0.00,VWS V14.01,2013-03-02 15:38:00,
2013-03-02 09:43:00,38.8,32.9,30.45,West,274,4.0,5.0,79,0.00,,---,0.00,VWS V14.01,2013-03-02 15:43:00,
2013-03-02 09:48:00,39.1,33.2,30.45,WNW,288,4.0,5.0,79,0.00,,---,0.00,VWS V14.01,2013-03-02 15:48:00,
2013-03-02 09:53:00,39.6,33.3,30.45,SW,225,2.0,5.0,78,0.00,,---,0.00,VWS V14.01,2013-03-02 15:53:00,
2013-03-02 09:58:00,40.6,33.6,30.45,SE,124,4.0,5.0,76,0.00,,---,0.00,VWS V14.01,2013-03-02 15:58:00,
2013-03-02 10:03:00,41.6,33.9,30.45,WSW,243,1.0,4.0,74,0.00,,---,0.00,VWS V14.01,2013-03-02 16:03:00,
2013-03-02 10:09:00,41.9,33.5,30.44,SSW,193,3.0,6.0,72,0.00,,---,0.00,VWS V14.01,2013-03-02 16:09:00,
2013-03-02 10:14:00,42.5,33.8,30.44,SSW,210,3.0,6.0,71,0.00,,---,0.00,VWS V14.01,2013-03-02 16:14:00,
2013-03-02 10:19:00,42.8,33.3,30.44,SSW,194,1.0,6.0,69,0.00,,---,0.00,VWS V14.01,2013-03-02 16:19:00,
2013-03-02 10:24:00,43.1,33.6,30.44,SSW,198,3.0,6.0,69,0.00,,---,0.00,VWS V14.01,2013-03-02 16:24:00,
2013-03-02 10:29:00,43.5,34.0,30.43,SW,214,7.0,8.0,69,0.00,,---,0.00,VWS V14.01,2013-03-02 16:29:00,
2013-03-02 10:34:00,43.8,34.3,30.43,South,176,5.0,7.0,69,0.00,,---,0.00,VWS V14.01,2013-03-02 16:34:00,
2013-03-02 10:39:00,44.2,34.3,30.43,SE,125,3.0,8.0,68,0.00,,---,0.00,VWS V14.01,2013-03-02 16:39:00,
2013-03-02 10:45:00,44.9,33.9,30.43,WSW,253,4.0,8.0,65,0.00,,---,0.00,VWS V14.01,2013-03-02 16:45:00,
2013-03-02 10:50:00,45.3,33.1,30.43,South,179,2.0,8.0,62,0.00,,---,0.00,VWS V14.01,2013-03-02 16:50:00,
2013-03-02 10:55:00,45.7,33.4,30.42,SSW,205,3.0,8.0,62,0.00,,---,0.00,VWS V14.01,2013-03-02 16:55:00,
2013-03-02 11:00:00,46.1,33.4,30.42,SW,226,3.0,8.0,61,0.00,,---,0.00,VWS V14.01,2013-03-02 17:00:00,
2013-03-02 11:05:00,46.3,34.4,30.42,West,263,5.0,5.0,63,0.00,,---,0.00,VWS V14.01,2013-03-02 17:05:00,
2013-03-02 11:10:00,46.8,34.1,30.42,SSE,167,5.0,8.0,61,0.00,,---,0.00,VWS V14.01,2013-03-02 17:10:00,
2013-03-02 11:15:00,47.1,33.1,30.42,SSW,195,2.0,8.0,58,0.00,,---,0.00,VWS V14.01,2013-03-02 17:15:00,
2013-03-02 11:20:00,47.9,34.3,30.41,SW,235,6.0,8.0,59,0.00,,---,0.00,VWS V14.01,2013-03-02 17:20:00,
2013-03-02 11:25:00,48.5,34.0,30.41,SSW,213,10.0,10.0,57,0.00,,---,0.00,VWS V14.01,2013-03-02 17:25:00,
2013-03-02 11:30:00,48.6,34.1,30.41,South,180,2.0,10.0,57,0.00,,---,0.00,VWS V14.01,2013-03-02 17:30:00,
2013-03-02 11:36:00,48.9,33.5,30.41,SSW,203,3.0,7.0,55,0.00,,---,0.00,VWS V14.01,2013-03-02 17:36:00,
2013-03-02 11:41:00,49.1,33.2,30.41,SSW,201,5.0,9.0,54,0.00,,---,0.00,VWS V14.01,2013-03-02 17:41:00,
2013-03-02 11:46:00,49.3,33.4,30.41,SW,217,5.0,9.0,54,0.00,,---,0.00,VWS V14.01,2013-03-02 17:46:00,
2013-03-02 11:51:00,50.0,33.6,30.41,SW,219,5.0,9.0,53,0.00,,---,0.00,VWS V14.01,2013-03-02 17:51:00,
2013-03-02 11:56:00,50.2,32.8,30.40,SSE,153,4.0,11.0,51,0.00,,---,0.00,VWS V14.01,2013-03-02 17:56:00,
2013-03-02 12:01:00,50.5,33.5,30.39,SSW,211,3.0,6.0,52,0.00,,---,0.00,VWS V14.01,2013-03-02 18:01:00,
2013-03-02 12:07:00,50.7,32.2,30.38,SSW,211,5.0,11.0,49,0.00,,---,0.00,VWS V14.01,2013-03-02 18:07:00,
2013-03-02 12:12:00,51.0,33.0,30.38,South,181,4.0,11.0,50,0.00,,---,0.00,VWS V14.01,2013-03-02 18:12:00,
2013-03-02 12:17:00,51.2,32.7,30.38,SSW,213,10.0,11.0,49,0.00,,---,0.00,VWS V14.01,2013-03-02 18:17:00,
2013-03-02 12:22:00,51.7,33.7,30.36,SSW,201,7.0,12.0,50,0.00,,---,0.00,VWS V14.01,2013-03-02 18:22:00,
2013-03-02 12:27:00,51.9,33.9,30.36,SE,139,8.0,12.0,50,0.00,,---,0.00,VWS V14.01,2013-03-02 18:27:00,
2013-03-02 12:32:00,52.5,34.9,30.36,South,188,9.0,10.0,51,0.00,,---,0.00,VWS V14.01,2013-03-02 18:32:00,
2013-03-02 12:37:00,52.4,34.3,30.36,SE,135,8.0,10.0,50,0.00,,---,0.00,VWS V14.01,2013-03-02 18:37:00,
2013-03-02 12:42:00,52.9,34.8,30.36,South,176,4.0,11.0,50,0.00,,---,0.00,VWS V14.01,2013-03-02 18:42:00,
2013-03-02 12:48:00,53.3,35.2,30.35,South,191,6.0,11.0,50,0.00,,---,0.00,VWS V14.01,2013-03-02 18:48:00,
2013-03-02 12:53:00,53.6,34.4,30.35,South,188,4.0,11.0,48,0.00,,---,0.00,VWS V14.01,2013-03-02 18:53:00,
2013-03-02 12:58:00,54.2,35.0,30.35,SSW,213,7.0,12.0,48,0.00,,---,0.00,VWS V14.01,2013-03-02 18:58:00,
2013-03-02 13:03:00,54.6,34.8,30.34,SSE,165,5.0,10.0,47,0.00,,---,0.00,VWS V14.01,2013-03-02 19:03:00,
2013-03-02 13:08:00,54.9,35.6,30.34,SSW,198,7.0,10.0,48,0.00,,---,0.00,VWS V14.01,2013-03-02 19:08:00,
2013-03-02 13:13:00,55.1,35.2,30.34,SW,222,6.0,13.0,47,0.00,,---,0.00,VWS V14.01,2013-03-02 19:13:00,
2013-03-02 13:18:00,55.3,35.4,30.33,South,185,6.0,13.0,47,0.00,,---,0.00,VWS V14.01,2013-03-02 19:18:00,
2013-03-02 13:24:00,55.7,35.3,30.33,South,188,8.0,13.0,46,0.00,,---,0.00,VWS V14.01,2013-03-02 19:24:00,
2013-03-02 13:29:00,55.9,35.4,30.32,SE,139,6.0,13.0,46,0.00,,---,0.00,VWS V14.01,2013-03-02 19:29:00,
2013-03-02 13:34:00,56.2,35.7,30.32,SW,222,3.0,7.0,46,0.00,,---,0.00,VWS V14.01,2013-03-02 19:34:00,
2013-03-02 13:39:00,56.5,36.0,30.31,SSE,149,5.0,12.0,46,0.00,,---,0.00,VWS V14.01,2013-03-02 19:39:00,
2013-03-02 13:44:00,56.7,36.7,30.31,SSE,148,7.0,12.0,47,0.00,,---,0.00,VWS V14.01,2013-03-02 19:44:00,
2013-03-02 13:50:00,56.8,36.3,30.30,SSE,147,8.0,13.0,46,0.00,,---,0.00,VWS V14.01,2013-03-02 19:50:00,
2013-03-02 13:55:00,57.0,36.4,30.30,South,174,4.0,13.0,46,0.00,,---,0.00,VWS V14.01,2013-03-02 19:55:00,
2013-03-02 14:00:00,57.2,36.6,30.29,SSW,208,8.0,13.0,46,0.00,,---,0.00,VWS V14.01,2013-03-02 20:00:00,
2013-03-02 14:05:00,57.7,36.0,30.29,SW,232,5.0,11.0,44,0.00,,---,0.00,VWS V14.01,2013-03-02 20:05:00,
2013-03-02 14:10:00,58.0,36.2,30.29,SSE,148,6.0,11.0,44,0.00,,---,0.00,VWS V14.01,2013-03-02 20:10:00,
2013-03-02 14:15:00,58.2,35.8,30.28,SSW,195,3.0,11.0,43,0.00,,---,0.00,VWS V14.01,2013-03-02 20:15:00,
2013-03-02 14:20:00,58.2,35.8,30.28,SSE,149,2.0,11.0,43,0.00,,---,0.00,VWS V14.01,2013-03-02 20:20:00,
2013-03-02 14:25:00,58.7,35.1,30.28,NW,304,2.0,11.0,41,0.00,,---,0.00,VWS V14.01,2013-03-02 20:25:00,
2013-03-02 14:30:00,59.0,34.7,30.27,SSW,205,6.0,14.0,40,0.00,,---,0.00,VWS V14.01,2013-03-02 20:30:00,
2013-03-02 14:36:00,59.3,35.6,30.27,WNW,298,6.0,10.0,41,0.00,,---,0.00,VWS V14.01,2013-03-02 20:36:00,
2013-03-02 14:41:00,60.1,35.7,30.26,SSW,205,9.0,10.0,40,0.00,,---,0.00,VWS V14.01,2013-03-02 20:41:00,
2013-03-02 14:46:00,60.9,35.1,30.26,WSW,256,8.0,10.0,38,0.00,,---,0.00,VWS V14.01,2013-03-02 20:46:00,
2013-03-02 14:51:00,61.0,35.2,30.26,WSW,240,7.0,12.0,38,0.00,,---,0.00,VWS V14.01,2013-03-02 20:51:00,
2013-03-02 14:56:00,60.9,35.8,30.26,SE,128,4.0,12.0,39,0.00,,---,0.00,VWS V14.01,2013-03-02 20:56:00,
2013-03-02 15:01:00,61.3,35.5,30.25,SW,215,3.0,3.0,38,0.00,,---,0.00,VWS V14.01,2013-03-02 21:01:00,
2013-03-02 15:06:00,61.8,35.3,30.25,West,271,5.0,12.0,37,0.00,,---,0.00,VWS V14.01,2013-03-02 21:06:00,
2013-03-02 15:11:00,62.0,34.8,30.25,WSW,250,6.0,12.0,36,0.00,,---,0.00,VWS V14.01,2013-03-02 21:11:00,
2013-03-02 15:17:00,61.7,35.2,30.25,WNW,299,5.0,12.0,37,0.00,,---,0.00,VWS V14.01,2013-03-02 21:17:00,
2013-03-02 15:22:00,62.1,36.2,30.25,SW,222,8.0,12.0,38,0.00,,---,0.00,VWS V14.01,2013-03-02 21:22:00,
2013-03-02 15:27:00,62.2,34.9,30.24,WNW,295,4.0,12.0,36,0.00,,---,0.00,VWS V14.01,2013-03-02 21:27:00,
2013-03-02 15:32:00,62.8,36.2,30.24,West,269,6.0,8.0,37,0.00,,---,0.00,VWS V14.01,2013-03-02 21:32:00,
2013-03-02 15:37:00,63.5,36.8,30.24,West,266,3.0,9.0,37,0.00,,---,0.00,VWS V14.01,2013-03-02 21:37:00,
2013-03-02 15:42:00,64.0,35.8,30.24,SSW,195,2.0,9.0,35,0.00,,---,0.00,VWS V14.01,2013-03-02 21:42:00,
2013-03-02 15:47:00,64.2,36.0,30.23,SSW,201,7.0,9.0,35,0.00,,---,0.00,VWS V14.01,2013-03-02 21:47:00,
2013-03-02 15:53:00,64.2,36.7,30.23,South,191,6.0,9.0,36,0.00,,---,0.00,VWS V14.01,2013-03-02 21:53:00,
2013-03-02 15:58:00,64.6,35.6,30.23,West,271,4.0,9.0,34,0.00,,---,0.00,VWS V14.01,2013-03-02 21:58:00,
2013-03-02 16:03:00,64.9,36.6,30.23,South,171,2.0,3.0,35,0.00,,---,0.00,VWS V14.01,2013-03-02 22:03:00,
2013-03-02 16:08:00,64.7,36.4,30.23,SSE,153,3.0,8.0,35,0.00,,---,0.00,VWS V14.01,2013-03-02 22:08:00,
2013-03-02 16:13:00,64.4,36.2,30.22,SW,219,4.0,8.0,35,0.00,,---,0.00,VWS V14.01,2013-03-02 22:13:00,
2013-03-02 16:19:00,64.4,35.5,30.22,WSW,248,1.0,8.0,34,0.00,,---,0.00,VWS V14.01,2013-03-02 22:19:00,
2013-03-02 16:24:00,64.8,35.8,30.22,SSW,209,3.0,8.0,34,0.00,,---,0.00,VWS V14.01,2013-03-02 22:24:00,
2013-03-02 16:29:00,65.0,36.7,30.22,SSW,201,4.0,8.0,35,0.00,,---,0.00,VWS V14.01,2013-03-02 22:29:00,
2013-03-02 16:34:00,65.2,36.2,30.21,SSW,201,4.0,6.0,34,0.00,,---,0.00,VWS V14.01,2013-03-02 22:34:00,
2013-03-02 16:39:00,65.3,37.0,30.21,SSW,200,2.0,6.0,35,0.00,,---,0.00,VWS V14.01,2013-03-02 22:39:00,
2013-03-02 16:44:00,65.7,37.3,30.21,SSW,198,2.0,6.0,35,0.00,,---,0.00,VWS V14.01,2013-03-02 22:44:00,
2013-03-02 16:50:00,66.0,37.6,30.21,SE,128,4.0,6.0,35,0.00,,---,0.00,VWS V14.01,2013-03-02 22:50:00,
2013-03-02 16:55:00,65.2,37.6,30.21,South,172,3.0,7.0,36,0.00,,---,0.00,VWS V14.01,2013-03-02 22:55:00,
2013-03-02 17:00:00,65.0,37.4,30.21,SSE,153,4.0,7.0,36,0.00,,---,0.00,VWS V14.01,2013-03-02 23:00:00,
2013-03-02 17:05:00,65.2,36.9,30.21,SE,136,1.0,7.0,35,0.00,,---,0.00,VWS V14.01,2013-03-02 23:05:00,
2013-03-02 17:10:00,65.3,37.0,30.21,SW,224,4.0,7.0,35,0.00,,---,0.00,VWS V14.01,2013-03-02 23:10:00,
2013-03-02 17:15:00,65.5,36.4,30.21,SSW,203,2.0,7.0,34,0.00,,---,0.00,VWS V14.01,2013-03-02 23:15:00,
2013-03-02 17:20:00,65.4,37.1,30.21,SSE,148,3.0,7.0,35,0.00,,---,0.00,VWS V14.01,2013-03-02 23:20:00,
2013-03-02 17:26:00,65.0,36.7,30.21,SE,146,3.0,7.0,35,0.00,,---,0.00,VWS V14.01,2013-03-02 23:26:00,
2013-03-02 17:31:00,64.5,37.0,30.21,SSE,159,3.0,4.0,36,0.00,,---,0.00,VWS V14.01,2013-03-02 23:31:00,
2013-03-02 17:36:00,64.5,37.0,30.20,SSE,168,3.0,6.0,36,0.00,,---,0.00,VWS V14.01,2013-03-02 23:36:00,
2013-03-02 17:41:00,64.1,37.3,30.20,SE,132,2.0,6.0,37,0.00,,---,0.00,VWS V14.01,2013-03-02 23:41:00,
2013-03-02 17:46:00,63.7,38.3,30.20,SE,146,3.0,6.0,39,0.00,,---,0.00,VWS V14.01,2013-03-02 23:46:00,
2013-03-02 17:51:00,63.4,37.4,30.20,SE,136,3.0,6.0,38,0.00,,---,0.00,VWS V14.01,2013-03-02 23:51:00,
2013-03-02 17:56:00,63.3,38.6,30.20,ESE,117,1.0,6.0,40,0.00,,---,0.00,VWS V14.01,2013-03-02 23:56:00,
2013-03-02 18:01:00,63.2,38.5,30.20,ESE,120,1.0,2.0,40,0.00,,---,0.00,VWS V14.01,2013-03-03 00:01:00,
2013-03-02 18:07:00,63.0,39.0,30.19,SE,132,3.0,4.0,41,0.00,,---,0.00,VWS V14.01,2013-03-03 00:07:00,
2013-03-02 18:12:00,62.5,39.1,30.19,SE,139,4.0,4.0,42,0.00,,---,0.00,VWS V14.01,2013-03-03 00:12:00,
2013-03-02 18:17:00,61.9,39.2,30.20,SE,127,4.0,6.0,43,0.00,,---,0.00,VWS V14.01,2013-03-03 00:17:00,
2013-03-02 18:22:00,61.1,39.6,30.20,ESE,122,4.0,6.0,45,0.00,,---,0.00,VWS V14.01,2013-03-03 00:22:00,
2013-03-02 18:27:00,60.3,39.5,30.20,SE,135,3.0,6.0,46,0.00,,---,0.00,VWS V14.01,2013-03-03 00:27:00,
2013-03-02 18:32:00,59.3,39.6,30.19,ESE,104,2.0,4.0,48,0.00,,---,0.00,VWS V14.01,2013-03-03 00:32:00,
2013-03-02 18:37:00,58.1,39.6,30.19,ESE,123,3.0,4.0,50,0.00,,---,0.00,VWS V14.01,2013-03-03 00:37:00,
2013-03-02 18:43:00,57.0,39.1,30.19,ESE,103,4.0,5.0,51,0.00,,---,0.00,VWS V14.01,2013-03-03 00:43:00,
2013-03-02 18:48:00,56.6,38.7,30.19,East,98,4.0,6.0,51,0.00,,---,0.00,VWS V14.01,2013-03-03 00:48:00,
2013-03-02 18:53:00,56.4,38.5,30.19,East,100,4.0,6.0,51,0.00,,---,0.00,VWS V14.01,2013-03-03 00:53:00,
2013-03-02 18:58:00,56.3,37.9,30.19,East,99,6.0,6.0,50,0.00,,---,0.00,VWS V14.01,2013-03-03 00:58:00,
2013-03-02 19:03:00,56.2,38.3,30.19,ESE,107,4.0,7.0,51,0.00,,---,0.00,VWS V14.01,2013-03-03 01:03:00,
2013-03-02 19:08:00,55.8,38.0,30.19,ESE,108,4.0,7.0,51,0.00,,---,0.00,VWS V14.01,2013-03-03 01:08:00,
2013-03-02 19:13:00,55.4,38.1,30.19,ESE,104,4.0,7.0,52,0.00,,---,0.00,VWS V14.01,2013-03-03 01:13:00,
2013-03-02 19:19:00,55.3,38.0,30.18,SE,129,4.0,7.0,52,0.00,,---,0.00,VWS V14.01,2013-03-03 01:19:00,
2013-03-02 19:24:00,54.8,38.0,30.18,ESE,122,4.0,7.0,53,0.00,,---,0.00,VWS V14.01,2013-03-03 01:24:00,
2013-03-02 19:29:00,54.5,37.7,30.19,ESE,113,4.0,7.0,53,0.00,,---,0.00,VWS V14.01,2013-03-03 01:29:00,
2013-03-02 19:34:00,53.9,37.7,30.19,SE,124,5.0,6.0,54,0.00,,---,0.00,VWS V14.01,2013-03-03 01:34:00,
2013-03-02 19:39:00,53.7,37.5,30.19,East,94,6.0,8.0,54,0.00,,---,0.00,VWS V14.01,2013-03-03 01:39:00,
2013-03-02 19:44:00,53.5,37.8,30.19,ESE,103,6.0,8.0,55,0.00,,---,0.00,VWS V14.01,2013-03-03 01:44:00,
2013-03-02 19:49:00,53.4,37.7,30.18,East,87,7.0,8.0,55,0.00,,---,0.00,VWS V14.01,2013-03-03 01:49:00,
2013-03-02 19:54:00,53.3,38.0,30.18,East,100,5.0,8.0,56,0.00,,---,0.00,VWS V14.01,2013-03-03 01:54:00,
2013-03-02 19:59:00,53.0,37.7,30.18,East,98,6.0,8.0,56,0.00,,---,0.00,VWS V14.01,2013-03-03 01:59:00,
2013-03-02 20:05:00,52.5,37.7,30.18,East,98,5.0,7.0,57,0.00,,---,0.00,VWS V14.01,2013-03-03 02:05:00,
2013-03-02 20:10:00,52.1,37.8,30.19,East,98,4.0,8.0,58,0.00,,---,0.00,VWS V14.01,2013-03-03 02:10:00,
2013-03-02 20:15:00,51.9,37.2,30.19,SE,127,5.0,8.0,57,0.00,,---,0.00,VWS V14.01,2013-03-03 02:15:00,
2013-03-02 20:20:00,51.8,37.1,30.19,ESE,110,5.0,8.0,57,0.00,,---,0.00,VWS V14.01,2013-03-03 02:20:00,
2013-03-02 20:25:00,51.6,36.9,30.18,ESE,110,5.0,8.0,57,0.00,,---,0.00,VWS V14.01,2013-03-03 02:25:00,
2013-03-02 20:30:00,51.3,37.0,30.19,East,96,5.0,8.0,58,0.00,,---,0.00,VWS V14.01,2013-03-03 02:30:00,
2013-03-02 20:35:00,51.2,37.0,30.19,East,100,6.0,9.0,58,0.00,,---,0.00,VWS V14.01,2013-03-03 02:35:00,
2013-03-02 20:40:00,51.1,36.8,30.19,ESE,122,5.0,9.0,58,0.00,,---,0.00,VWS V14.01,2013-03-03 02:40:00,
2013-03-02 20:46:00,51.0,36.8,30.18,East,94,6.0,9.0,58,0.00,,---,0.00,VWS V14.01,2013-03-03 02:46:00,
2013-03-02 20:51:00,50.8,36.6,30.18,East,93,7.0,9.0,58,0.00,,---,0.00,VWS V14.01,2013-03-03 02:51:00,
2013-03-02 20:56:00,50.5,36.7,30.18,ESE,103,7.0,10.0,59,0.00,,---,0.00,VWS V14.01,2013-03-03 02:56:00,
2013-03-02 21:01:00,50.2,36.4,30.19,East,97,6.0,7.0,59,0.00,,---,0.00,VWS V14.01,2013-03-03 03:01:00,
2013-03-02 21:06:00,50.3,36.5,30.19,ESE,110,6.0,11.0,59,0.00,,---,0.00,VWS V14.01,2013-03-03 03:06:00,
2013-03-02 21:11:00,50.3,36.1,30.19,East,90,7.0,11.0,58,0.00,,---,0.00,VWS V14.01,2013-03-03 03:11:00,
2013-03-02 21:16:00,49.9,36.2,30.19,ENE,75,5.0,11.0,59,0.00,,---,0.00,VWS V14.01,2013-03-03 03:16:00,
2013-03-02 21:22:00,49.4,36.1,30.19,ENE,67,4.0,11.0,60,0.00,,---,0.00,VWS V14.01,2013-03-03 03:22:00,
2013-03-02 21:27:00,49.0,36.2,30.19,East,91,4.0,11.0,61,0.00,,---,0.00,VWS V14.01,2013-03-03 03:27:00,
2013-03-02 21:32:00,48.9,36.1,30.20,ESE,107,6.0,8.0,61,0.00,,---,0.00,VWS V14.01,2013-03-03 03:32:00,
2013-03-02 21:37:00,48.7,36.3,30.20,East,84,5.0,10.0,62,0.00,,---,0.00,VWS V14.01,2013-03-03 03:37:00,
2013-03-02 21:42:00,48.4,36.0,30.20,East,96,7.0,10.0,62,0.00,,---,0.00,VWS V14.01,2013-03-03 03:42:00,
2013-03-02 21:47:00,48.2,35.8,30.20,SE,128,5.0,10.0,62,0.00,,---,0.00,VWS V14.01,2013-03-03 03:47:00,
2013-03-02 21:52:00,48.1,36.1,30.20,ESE,113,10.0,10.0,63,0.00,,---,0.00,VWS V14.01,2013-03-03 03:52:00,
2013-03-02 21:57:00,48.1,36.1,30.20,ESE,105,10.0,11.0,63,0.00,,---,0.00,VWS V14.01,2013-03-03 03:57:00,
2013-03-02 22:03:00,47.9,35.9,30.20,East,101,9.0,9.0,63,0.00,,---,0.00,VWS V14.01,2013-03-03 04:03:00,
2013-03-02 22:08:00,47.9,35.5,30.20,East,93,9.0,13.0,62,0.00,,---,0.00,VWS V14.01,2013-03-03 04:08:00,
2013-03-02 22:13:00,47.9,35.5,30.20,ESE,117,7.0,13.0,62,0.00,,---,0.00,VWS V14.01,2013-03-03 04:13:00,
2013-03-02 22:18:00,47.9,35.1,30.20,East,98,6.0,13.0,61,0.00,,---,0.00,VWS V14.01,2013-03-03 04:18:00,
2013-03-02 22:23:00,48.0,35.2,30.20,ESE,113,6.0,13.0,61,0.00,,---,0.00,VWS V14.01,2013-03-03 04:23:00,
2013-03-02 22:28:00,47.7,34.9,30.20,East,91,8.0,13.0,61,0.00,,---,0.00,VWS V14.01,2013-03-03 04:28:00,
2013-03-02 22:33:00,47.6,35.2,30.20,East,86,6.0,9.0,62,0.00,,---,0.00,VWS V14.01,2013-03-03 04:33:00,
2013-03-02 22:39:00,47.4,35.0,30.20,East,89,8.0,12.0,62,0.00,,---,0.00,VWS V14.01,2013-03-03 04:39:00,
2013-03-02 22:44:00,47.3,35.0,30.19,East,89,7.0,14.0,62,0.00,,---,0.00,VWS V14.01,2013-03-03 04:44:00,
2013-03-02 22:49:00,47.1,34.8,30.19,ESE,103,9.0,14.0,62,0.00,,---,0.00,VWS V14.01,2013-03-03 04:49:00,
2013-03-02 22:54:00,47.0,34.7,30.19,East,90,7.0,14.0,62,0.00,,---,0.00,VWS V14.01,2013-03-03 04:54:00,
2013-03-02 22:59:00,47.0,34.7,30.19,East,101,10.0,14.0,62,0.00,,---,0.00,VWS V14.01,2013-03-03 04:59:00,
2013-03-02 23:00:00,47.0,34.3,30.19,ESE,107,11.0,14.0,61,0.00,,---,0.00,VWS V14.01,2013-03-03 05:00:00,
2013-03-02 23:02:00,47.1,34.4,30.19,East,91,7.0,11.0,61,0.00,,---,0.00,VWS V14.01,2013-03-03 05:02:00,
2013-03-02 23:07:00,47.0,34.3,30.19,East,98,10.0,12.0,61,0.00,,---,0.00,VWS V14.01,2013-03-03 05:07:00,
2013-03-02 23:12:00,46.8,34.5,30.19,East,93,9.0,15.0,62,0.00,,---,0.00,VWS V14.01,2013-03-03 05:12:00,
2013-03-02 23:17:00,46.7,34.4,30.18,East,96,7.0,15.0,62,0.00,,---,0.00,VWS V14.01,2013-03-03 05:17:00,
2013-03-02 23:22:00,46.5,34.2,30.18,East,100,9.0,15.0,62,0.00,,---,0.00,VWS V14.01,2013-03-03 05:22:00,
2013-03-02 23:28:00,46.4,34.5,30.17,East,96,11.0,15.0,63,0.00,,---,0.00,VWS V14.01,2013-03-03 05:28:00,
2013-03-02 23:33:00,46.2,34.3,30.17,ESE,120,5.0,8.0,63,0.00,,---,0.00,VWS V14.01,2013-03-03 05:33:00,
2013-03-02 23:38:00,46.0,34.1,30.17,East,82,8.0,12.0,63,0.00,,---,0.00,VWS V14.01,2013-03-03 05:38:00,
2013-03-02 23:43:00,45.9,34.0,30.17,SE,128,3.0,12.0,63,0.00,,---,0.00,VWS V14.01,2013-03-03 05:43:00,
2013-03-02 23:48:00,45.8,34.3,30.17,ESE,111,7.0,12.0,64,0.00,,---,0.00,VWS V14.01,2013-03-03 05:48:00,
2013-03-02 23:53:00,45.6,34.1,30.17,ESE,122,4.0,12.0,64,0.00,,---,0.00,VWS V14.01,2013-03-03 05:53:00,
2013-03-02 23:58:00,45.3,33.9,30.17,SE,143,6.0,12.0,64,0.00,,---,0.00,VWS V14.01,2013-03-03 05:58:00,